Regional Weather Roundup
Issued by NWS San Diego, CA

Home | Current Version | Previous Version | Text Only | Print | Product List | Glossary On
Versions: 1 2 3 4 5 6 7 8 9 10 11 12 13 14 15 16 17 18 19 20 21 22 23 24 25 26 27 28 29 30 31 32 33 34 35 36 37 38 39 40 41 42 43 44 45 46 47 48 49 50
860
ASUS46 KSGX 031911
RWRSGX

SAN DIEGO HOURLY WEATHER ROUNDUP
NATIONAL WEATHER SERVICE SAN DIEGO CA
1100 AM PST SAT DEC 03 2016

NOTE: "FAIR" INDICATES FEW OR NO CLOUDS BELOW 12,000 FEET WITH NO
SIGNIFICANT WEATHER AND/OR OBSTRUCTIONS TO VISIBILITY.

CAZ042-043-060-061-PZZ750-775-032000-

GREATER SAN DIEGO AREA

CITY           SKY/WX    TMP DP  RH WIND       PRES   REMARKS
SAN DIEGO AP   SUNNY     64  19  17 NW7       30.13F
NATIONAL CITY    N/A     65  28  24 SW3       30.11F
CHULA VISTA      N/A     68  29  23 W2        30.04F
IMPERIAL BEACH SUNNY     70  17  13 N5        30.11F
BROWN FIELD    SUNNY     65  17  15 VRB6      30.10F
MIRAMAR MCAS   SUNNY     68  22  17 NW7       30.11F
MONTGOMERY FLD SUNNY     65  18  16 VRB3      30.12S

$$

NORTH SAN DIEGO COUNTY

CITY           SKY/WX    TMP DP  RH WIND       PRES   REMARKS
CAMP PENDLETON SUNNY     67  14  13 E7        30.11F
OCEANSIDE AP   SUNNY     68  16  13 E8        30.11F
OCEANSIDE HBR    N/A     67  20  17 CALM      30.14F
VISTA            N/A     65  25  22 CALM      30.11F
CARLSBAD       SUNNY     66  17  15 VRB5      30.11F
DEL MAR          N/A     65  35  32 CALM      30.14F
LA JOLLA SCRIP   N/A     60  40  48 NW2       30.12F
FALLBROOK        N/A     62  21  20 NW5       30.11F
ESCONDIDO        N/A     66  18  16 W3        30.13F
SAN MARCOS       N/A     66  20  17 CALM      30.14F
POWAY            N/A     67  28  23 CALM      30.14F

$$

EAST SAN DIEGO COUNTY

CITY           SKY/WX    TMP DP  RH WIND       PRES   REMARKS
RAMONA         SUNNY     64  12  13 VRB3      30.10F
SANTEE LAKES     N/A     64  27  24 E3        30.11F
LA MESA          N/A     64  21  19 CALM      30.05F
JAMUL            N/A     65  27  23 CALM      30.12F
DESCANSO N       N/A     54  17  23 E12       30.09F
CAMPO            N/A     57  13  17 NE16G30   30.07F

$$

ORANGE COUNTY AND THE LOS ANGELES BASIN

CITY           SKY/WX    TMP DP  RH WIND       PRES   REMARKS
JOHN WAYNE AP  SUNNY     65  12  12 NW8       30.11F
LAGUNA BEACH     N/A     66  25  21 NW5       30.06F
LAKE FOREST FR   N/A     66   0   7 CALM      30.00F
HUNTINGTON BCH   N/A     66  21  17 NW2       30.14F
LOS ALAMITOS   SUNNY     64  13  13 CALM      30.12F
FULLERTON      SUNNY     65  40  39 VRB3      30.12F
LONG BEACH     SUNNY     64  12  13 VRB3      30.13F
L.A. AP        SUNNY     64  19  17 S6        30.12F
L.A. DOWNTOWN  SUNNY     63  20  19 CALM      30.12F

$$

THE INLAND EMPIRE

CITY           SKY/WX    TMP DP  RH WIND       PRES   REMARKS
CORONA         SUNNY     68   8   9 NE14G24   30.11
CHINO          SUNNY     65  14  14 W7        30.13F
ONTARIO        SUNNY     62   9  12 W7        30.12F
SAN BERNARDINO SUNNY    N/A N/A N/A E5        30.12F
RIVERSIDE AP   SUNNY     63  12  13 S3        30.12F
MORENO VALLEY    N/A     59  23  25 SE5       28.23F
MARCH ARB      SUNNY     57   8  14 CALM      30.12F
PERRIS           N/A     58  25  28 SW1       30.15F
HEMET EAST       N/A     55  12  18 CALM      30.21S
FRENCH VALLEY  NOT AVBL
TEMECULA         N/A     59  28  31 CALM      30.18F

$$

SAN BERNARDINO AND RIVERSIDE COUNTY MOUNTAINS

CITY           SKY/WX    TMP DP  RH WIND       PRES   REMARKS
BIG BEAR AP    SUNNY     39 -13  10 NE12G18   30.22S WCI  32
ANGELUS OAKS     N/A     45   9  22 E1        30.23S
PINE COVE        N/A     45   9  23 CALM      30.24F

$$

SOUTHERN DESERT INCLUDING THE COACHELLA VALLEY

CITY           SKY/WX    TMP DP  RH WIND       PRES   REMARKS
PALM SPRINGS   SUNNY     66   2   8 SW9       30.15F
PALM DESERT      N/A     68   9  10 CALM        N/A
THERMAL        SUNNY     67   4   8 NW8       30.14F
BLYTHE         PTSUNNY   62  13  14 N24       30.11F
IMPERIAL AP    SUNNY     65  22  19 N24G35    30.10F
EL CENTRO NAS  SUNNY     66  15  14 N20G29    30.14F
YUMA AZ        SUNNY     63  16  16 N16G31    30.06
MEXICALI       SUNNY     63  12  14 NW18      30.10S

$$

UPPER DESERT

CITY           SKY/WX    TMP DP  RH WIND       PRES   REMARKS
VICTORVILLE AP SUNNY     48   1  14 CALM      30.23F
HESPERIA         N/A     52   5  15 SE5       30.42F
PALMDALE       SUNNY     53   7  15 NE10      30.23F
LANCASTER      SUNNY     53   5  14 NE9       30.25F
EDWARDS AFB    SUNNY     49   4  16 CALM      30.23F
DAGGETT        SUNNY     54   3  12 CALM      30.24F
29 PALMS N     SUNNY     54   7  15 N14       30.27F
NEEDLES        SUNNY     60  15  17 N31G40    30.15F

$$

REGIONAL REPORTS

CITY           SKY/WX    TMP DP  RH WIND       PRES   REMARKS
SANTA BARBARA  SUNNY     59  46  62 SE7       30.16F
SANDBERG       SUNNY     48   5  17 NE15G26   30.21
LAS VEGAS NV   MOSUNNY   52   7  16 NE10      30.22F
PHOENIX AZ     MOSUNNY   63  25  23 W6        29.97F
TIJUANA        SUNNY     64  12  13 CALM      30.13F
ENSENADA NW      N/A     69  32  25 N40       30.04F

$$

OFFSHORE ISLANDS

CITY           SKY/WX    TMP DP  RH WIND       PRES   REMARKS
CATALINA ARPT  SUNNY     61  11  14 SW6       30.15S
SAN CLEMENTE I SUNNY     64  33  31 NW9       30.15F
SAN NICOLAS IS SUNNY     61  35  37 NW12      30.16F

$$

MARINE AND OFFSHORE BUOY REPORTS

STATION/POSITION SKY/WX   TEMP    WIND        PRES    SWELL
                          AIR SEA DIR/SP/G            HT/PER/DIR
                          (F)     (DEG/KT/KT) (MB)    (FT/S/D)
TANNER BANKS               59 62  330/ 12/ 16 1021.4F   8/320/11
S CLEMENTE BASIN           61 61  340/  8/  8 1020.4F   5/290/10
SAN NICOLAS IS.               59                N/A     7/310/20
SO. S. ROSA ISLA           56 58  320/ 10/ 12 1021.4F   7/300/11
W. S. BARBARA CH           56 58  360/  6/  8 1021.8F   7/300/11
M. S. BARBARA CH                  140/  2/  4 1022.0F
S. MONICA BASIN            62 60  350/ 19/ 23 1019.8F   3/280/11
S PEDRO CHANNEL               61                N/A     2/280/12
CMP PENDLETON NS              62                N/A     2/200/15
OCEANSIDE OFFSHR              63                N/A     2/270/12
TORREY PINES OTR              62                N/A     2/290/11
POINT LOMA SOUTH              61                N/A     3/270/11

$$





USA.gov is the U.S. government's official web portal to all federal, state and local government web resources and services.